Location: *
(46.2662°S, 173.6570°W)
Time: 04:10:13
(UTC+00:00)

Daily predictions for brighter satellites

Satellite Brightness Start Highest point End
(mag) Time Altitude Azimuth Time Altitude Azimuth Time Altitude Azimuth
IRIDIUM 114 4.4 06:03:06 10° S 06:08:25 67° E 06:13:38 10° NNE
ASTEX 1 4.2 06:05:48 10° N 06:10:47 61° W 06:15:49 10° SSW
Cosmos 1354 Rocket 4.2 06:09:55 10° SSW 06:15:13 55° ESE 06:20:25 10° NE
CZ-4 R/B 3.3 06:14:40 10° ESE 06:15:28 10° E 06:16:15 10° E
Cosmos 2333 Rocket 2.4 06:09:42 10° SSW 06:15:32 86° WNW 06:21:18 10° NNE
USA 306 4.4 06:12:15 10° WSW 06:15:54 28° S 06:19:32 10° ESE
Radarsat Rocket 4.2 06:11:07 10° SSE 06:16:52 48° ENE 06:22:57 10° N
Cosmos 1486 Rocket 4.3 06:11:39 10° SSW 06:16:57 75° WNW 06:22:12 10° NNE
IRIDIUM 103 4.4 06:12:14 10° S 06:17:35 80° E 06:22:50 10° N
COSMOS 2487 2.6 06:16:52 10° NNW 06:19:45 61° WSW 06:22:42 10° SSE
Cosmos 2219 Rocket 2.2 06:14:23 10° SSW 06:20:07 76° ESE 06:25:48 10° NNE
Cosmos 2297 Rocket 3.7 06:18:09 10° NE 06:21:15 15° E 06:24:19 10° ESE
Cosmos 1092 Rocket 4.1 06:15:14 10° S 06:21:38 71° E 06:27:59 10° NNE
Lacrosse 4 Rocket 4.3 06:19:39 10° WSW 06:22:13 16° WNW 06:24:44 10° NW
H-2A R/B 3.3 06:18:02 10° S 06:22:48 46° WSW 06:27:30 10° NW
SL-08 RB Rocket 3.6 06:19:16 10° SSE 06:23:50 77° ENE 06:28:21 10° N
Cosmos 1703 Rocket 3.8 06:20:22 10° N 06:24:50 81° W 06:29:24 10° S
SL-27 R/B 2.2 06:25:07 10° NNW 06:28:23 80° ENE 06:31:44 10° SSE
Cosmos 1953 4.1 06:27:54 10° SSE 06:30:34 16° ESE 06:32:25 13° E
Uosat 12 SS-18 rocket 4.5 06:25:48 10° NW 06:30:47 73° SW 06:35:06 10° SSE
USA 234 4.2 06:24:32 10° SE 06:30:47 46° SSW 06:37:02 10° W
Cosmos 1674 3.0 06:28:09 10° NNE 06:31:40 42° E 06:35:13 10° SSE
Cosmos 2034 Rocket 4.5 06:26:22 10° NNW 06:32:36 68° W 06:38:52 10° S
Okean O Rocket 2.9 06:31:09 10° SE 06:34:26 20° E 06:37:40 10° NE
CZ-4C R/B 3.0 06:32:16 10° NNE 06:35:44 86° WNW 06:39:18 10° SSW
Cosmos 2237 Rocket 3.2 06:32:40 10° S 06:37:46 31° SE 06:41:48 15° ENE
USA 308 4.3 06:34:43 10° SW 06:38:23 29° S 06:42:04 10° ESE
Okean 1-7 4.1 06:35:00 10° NNW 06:39:14 50° WSW 06:43:34 10° S
Cosmos 2360 Rocket 3.8 06:34:40 10° SW 06:39:52 36° WNW 06:45:01 10° N
In-Cosmos 22 4.1 06:38:26 10° N 06:43:53 73° E 06:49:33 10° SSE
Cosmos 1300 Rocket 3.5 06:39:44 10° S 06:44:09 67° ESE 06:48:30 10° NNE
NOAA 6 4.4 06:39:40 10° S 06:44:51 71° WSW 06:49:58 10° NNW
Cosmos 1782 Rocket 3.9 06:40:28 10° SSW 06:44:56 70° W 06:49:19 10° N
COSMOS 2428 2.7 06:41:58 10° SSW 06:47:45 82° ESE 06:53:29 10° NNE
YAOGAN 1 3.2 06:46:32 10° SSE 06:50:35 35° E 06:54:36 10° NNE
Alouette 2 Rocket 3.5 06:45:56 10° N 06:50:50 89° ENE 06:54:37 10° SSE
Okean 2 Rocket 3.6 06:48:07 10° S 06:52:20 38° ESE 06:55:22 17° NE
SJ 16-02 1.8 06:49:00 10° SSW 06:53:27 65° WNW 06:57:51 10° N
KORONAS-FOTON 3.7 06:50:00 10° N 06:53:49 86° E 06:57:41 10° S
Cosmos 1300 4.1 06:51:01 10° SSE 06:53:59 21° ESE 06:54:38 20° E
Meteor 1-21 4.2 06:50:07 10° N 06:55:45 83° E 07:01:29 10° SSE
CZ-4C R/B 3.8 06:51:41 10° NNE 06:58:25 27° ENE 07:04:29 10° ESE
Cosmos 1777 Rocket 4.0 06:53:02 10° SSW 06:58:26 87° ESE 07:03:44 10° NNE
NOSS 0 Rocket 4.0 06:52:51 10° SSW 06:59:08 66° ESE 07:04:03 17° NE
ARGOS 4.5 06:56:22 10° S 07:01:32 44° WSW 07:06:37 10° NW
Okean 2 3.3 06:57:58 10° N 07:02:05 71° E 07:06:15 10° SSE
CZ-4B R/B 3.3 06:58:27 10° SSE 07:03:43 49° E 07:08:51 10° N
Cosmos 1707 3.7 07:00:22 10° NNW 07:04:09 50° WSW 07:08:01 10° S
USA 305 4.0 07:02:54 10° SW 07:06:44 34° SSE 07:08:59 20° ESE
X-37B 2.9 07:05:34 10° WNW 07:07:03 13° NNW 07:08:17 11° N
PAYLOAD B 4.2 07:04:18 10° SSE 07:10:00 78° ENE 07:15:38 10° NNW
Cosmos 1626 2.5 07:06:55 10° NNW 07:10:33 64° W 07:14:16 10° S
PSLV R/B 3.9 07:08:39 18° NNE 07:11:47 71° ESE 07:16:03 10° S
Cosmos 2279 Rocket 3.9 07:05:59 10° N 07:12:15 80° E 07:18:36 10° S
Geosat 4.1 07:08:25 14° NNE 07:12:48 81° WNW 07:17:55 10° SSW
Cosmos 1271 Rocket 3.5 07:12:16 10° S 07:15:45 31° ESE 07:15:56 31° E
Cosmos 2142 Rocket 4.4 07:10:02 10° N 07:16:13 85° E 07:22:28 10° S
Meteor 1-16 Rocket 4.0 07:11:33 10° S 07:16:58 74° ESE 07:21:20 16° NNE
SL-16 R/B 3.6 07:13:17 10° S 07:17:54 24° SE 07:19:50 20° ESE
Kosmos-1675 4.2 07:11:49 10° SW 07:18:09 71° WNW 07:20:43 21° NNE
Lacrosse 5 rocket 1.0 07:16:05 10° NW 07:19:45 82° SW 07:22:29 18° SE
Cosmos 2151 Rocket 3.6 07:15:22 10° S 07:19:56 67° E 07:22:24 26° NNE
APEX 3.6 07:17:22 10° SSW 07:22:09 56° ESE 07:23:20 40° ENE
H-2A R/B 2.1 07:19:38 19° NNE 07:22:53 87° ESE 07:27:30 10° SSW
Meteor 2-10 Rocket 3.8 07:19:33 10° S 07:24:44 51° ESE 07:26:59 31° NE
Cosmos 1758 4.3 07:21:30 10° SSW 07:25:25 47° W 07:29:14 10° NNW
Aureole 3 Rocket 2.7 07:25:26 43° NE 07:26:13 53° E 07:29:29 10° SSE
Cosmos 1908 3.9 07:22:49 10° SSW 07:26:40 54° W 07:30:10 12° N
Cosmos 990 Rocket 4.2 07:23:40 10° SSW 07:28:45 50° ESE 07:30:22 37° ENE
CZ-4B R/B 2.0 07:33:07 37° SSE 07:33:07 37° SSE 07:35:17 10° S
Sich 1 Rocket 4.0 07:30:08 10° SSW 07:34:42 65° W 07:38:11 16° N
Okean-O 4.2 07:33:53 10° SE 07:35:47 20° SE 07:35:47 20° SE
Cosmos 1607 4.4 07:31:41 10° SW 07:37:59 60° WNW 07:42:07 22° NNE
USA 276 2.5 07:36:27 10° W 07:39:22 55° SSW 07:39:22 55° SSW
FALCON 9 DEB 3.3 07:36:48 10° WNW 07:39:25 56° NW 07:39:25 56° NW
Cosmos 1674 Rocket 3.5 07:38:38 21° N 07:41:37 81° E 07:46:11 10° S
IRAS Rocket 4.3 07:39:48 38° NE 07:41:52 61° ESE 07:47:28 10° S
USA 307 3.6 07:39:22 10° SW 07:43:20 41° SSE 07:44:03 38° SE
ATLAS 3B R/B 2.7 07:37:58 10° NNW 07:45:17 63° ENE 07:52:14 10° SE
SL-14 R/B 3.5 07:45:43 18° NNW 07:48:40 72° W 07:52:47 10° S
Cosmos 468 Rocket 4.1 07:48:42 48° NE 07:49:28 53° ENE 07:54:42 10° SSE
Cosmos 2227 Rocket 2.3 07:49:17 44° NE 07:50:16 49° ENE 07:55:47 10° SE
Cosmos 1898 Rocket 3.7 07:45:28 10° SSW 07:50:34 49° ESE 07:51:09 47° E
CZ-4 R/B 1.5 07:46:51 10° S 07:50:51 74° WSW 07:53:19 23° NNW
ATLAS 5 CENTAUR R/B 2.0 07:46:24 10° SW 07:52:09 74° NW 07:53:25 50° NNE
USA 306 3.2 07:51:50 10° SW 07:55:55 52° SSE 07:56:02 52° SSE
SJ-6B 4.3 07:54:16 10° SSE 07:56:12 26° SSE 07:56:12 26° SSE
Cosmos 1980 3.9 07:55:44 10° SSW 08:01:25 68° WNW 08:03:27 40° N
Cosmos 540 Rocket 4.4 08:03:34 32° SE 08:03:34 32° SE 08:06:38 10° SSE
Cosmos 2297 Rocket 2.1 07:58:46 10° NNW 08:04:27 87° WSW 08:10:12 10° SSE
ERBS 4.5 08:03:34 10° SW 08:04:52 20° SSW 08:04:52 20° SSW
Cosmos 1953 3.2 08:03:10 10° SSW 08:07:08 46° W 08:08:01 39° NW
SL-08 ROCKET BODY 4.5 08:01:25 10° S 08:07:36 59° ESE 08:08:26 55° ENE
Cosmos 1238 Rocket 3.4 08:01:53 10° S 08:07:44 77° E 08:08:13 70° NE
Okean O Rocket 2.7 08:06:45 10° S 08:11:00 45° WSW 08:15:11 10° NW
Cosmos 1378 Rocket 4.3 08:08:26 22° NW 08:11:00 51° WSW 08:15:19 10° S
CSL-04 Debris 4.1 08:12:24 10° SSE 08:18:01 77° ENE 08:18:25 73° NNE
USA 308 3.6 08:14:15 10° SW 08:17:39 50° SSW 08:17:39 50° SSW
Cosmos 1655 Rocket 4.4 08:12:18 10° SSW 08:18:42 64° W 08:21:59 30° NNW
Cosmos 1763 Rocket 3.6 08:14:57 16° NNW 08:19:15 77° WSW 08:24:39 10° SSE
Meteor 1-24 Rocket 4.2 08:21:42 49° ESE 08:21:42 49° ESE 08:26:31 10° SSE
Cosmos 2237 Rocket 2.8 08:16:32 10° SW 08:22:04 50° WNW 08:23:39 39° NNW
Okean 1 Rocket 3.7 08:19:04 10° SSW 08:23:22 51° W 08:23:32 51° WNW
SL-8 R/B 4.0 08:18:30 10° WNW 08:22:31 61° WNW 08:22:31 61° WNW
NOSS 3-1 (C) 4.3 08:16:18 10° N 08:25:02 52° ENE 08:32:45 10° SE
Cosmos 1455 Rocket 4.1 08:22:39 10° S 08:25:33 38° SSE 08:25:33 38° SSE
Cosmos 1300 4.3 08:26:07 10° SSW 08:29:28 31° W 08:29:28 31° W
Cosmos 372 Rocket 4.4 08:30:29 10° SSW 08:34:57 57° SSE 08:34:57 57° SSE
Cosmos 2219 3.2 08:42:08 76° S 08:42:08 76° S 08:47:27 10° SSE
USA 81 4.4 08:43:32 58° WNW 08:43:56 60° W 08:49:15 10° S
CZ-4C R/B 2.9 08:38:13 10° NW 08:46:40 84° SW 08:53:44 10° SE
CSL-04 Rocket 3.8 08:43:22 10° S 08:48:40 68° WSW 08:48:40 68° WSW
Meteor 2-5 Rocket 3.9 08:50:46 74° SSW 08:50:46 74° SSW 08:56:16 10° S
Resurs 01 Rocket 3.9 08:48:57 10° SSE 08:50:00 17° SSE 08:50:00 17° SSE
Cosmos 1244 Rocket 4.5 08:52:08 10° S 08:58:09 78° WSW 08:58:09 78° WSW
Lacrosse 5 rocket 3.8 08:56:13 10° WSW 08:58:02 19° SW 08:58:02 19° SW
SL-16 R/B 2.6 08:56:50 10° SSW 09:01:43 60° WSW 09:01:43 60° WSW
Cosmos 1937 Rocket 4.4 09:00:52 10° SSW 09:04:59 46° WSW 09:04:59 46° WSW
Okean-O 4.4 09:10:13 10° S 09:13:21 30° SW 09:13:21 30° SW
Cosmos 1745 Rocket 4.5 09:17:27 10° S 09:22:20 55° S 09:22:20 55° S
Cosmos 2227 Rocket 3.8 09:30:39 15° WNW 09:34:33 31° SW 09:39:39 10° SSE
Cosmos 1943 4.4 09:30:13 10° SSW 09:33:43 37° S 09:33:43 37° S
ATLAS 3B R/B 3.9 09:29:36 10° WNW 09:36:23 39° SW 09:42:50 10° SSE
BREEZE-M DEB (TANK) 4.2 09:26:13 10° W 09:36:46 56° W 09:36:46 56° W
USA 234 4.0 09:55:16 47° SSE 09:55:16 47° SSE 10:01:22 10° SW
Cosmos 2263 Rocket 4.2 10:37:21 24° S 10:37:21 24° S 10:39:54 10° SSE
CZ-4C R/B 4.3 10:29:23 10° W 10:36:07 30° SSW 10:41:51 10° SSE
CENTAUR R/B 4.3 11:10:00 10° SSW 11:12:41 23° SSW 11:12:41 23° SSW
CZ-2D R/B 4.4 11:26:35 19° SSE 11:26:35 19° SSE 11:28:20 10° S
Resurs 1-4 Rocket 4.4 11:26:45 20° SSE 11:26:45 20° SSE 11:28:40 10° S
Cosmos 2082 Rocket 4.3 11:45:56 10° S 11:49:09 23° SSE 11:49:09 23° SSE
